Location: Coupvray
(48.8929°N, 2.7967°E)
Time: 22:46:20
(UTC+00:00)

Cosmos 724 - Pass Details

Date: 27 October 2020
Orbit: 851 x 943 km, 65.6° (Epoch: 27 November)

Event Time Altitude Azimuth Distance (km) Brightness Sun altitude
Exits shadow 03:20:20 16° 346° (NNW) 2,187 6.3 -31.2°
Maximum altitude 03:21:02 16° 354° (N) 2,175 6.4 -31.1°
Drops below altitude 10° 03:24:46 10° 33° (NNE) 2,624 7.3 -30.5°
Sets 03:28:25 0° 54° (NE) 3,584 8.5 -29.9°
